Temp
-6 -5 -5 -5 -5 -5 -5 -5 -5 -5 -5 -5 -5 -5 -4 -4 -4 -4 -5 -5 -5 -5 -4 -4 -4 -4 -4 -4 -4 -4 -3 -3 -3 -4 -4 -4 -4 -4 -4 -4 -4 -4 -4 -4 -4 -4 -4 -4 -4 -4 -4 -4 -4 -4 -5 -5 -5 -5 -5 -5 -6 -6 -6
-5 -5 -5 -5 -5 -5 -5 -5 -5 -5 -5 -5 -5 -5 -4 -4 -4 -4 -5 -5 -5 -5 -5 -5 -4 -4 -4 -4 -4 -4 -4 -3 -3 -4 -4 -4 -4 -4 -4 -4 -4 -4 -4 -4 -4 -4 -4 -4 -4 -4 -4 -4 -4 -4 -4 -5 -5 -5 -5 -5 -5 -6 -6
-4 -4 -4 -5 -5 -5 -5 -5 -5 -5 -5 -5 -5 -5 -5 -5 -5 -5 -5 -5 -5 -5 -5 -5 -5 -4 -4 -4 -4 -4 -4 -3 -3 -4 -4 -4 -4 -4 -4 -4 -4 -4 -4 -4 -4 -4 -4 -4 -4 -4 -4 -4 -4 -4 -4 -5 -5 -5 -5 -5 -5 -5 -6
-4 -4 -4 -5 -5 -5 -5 -5 -5 -5 -5 -5 -5 -5 -5 -5 -5 -5 -5 -5 -5 -5 -5 -5 -5 -4 -4 -4 -4 -4 -4 -3 -3 -4 -4 -4 -4 -4 -4 -4 -4 -4 -4 -4 -4 -4 -4 -4 -4 -4 -4 -4 -4 -4 -4 -5 -5 -5 -5 -5 -5 -6 -6
-5 -4 -4 -4 -5 -5 -5 -5 -5 -5 -5 -5 -5 -5 -5 -5 -4 -4 -5 -5 -5 -5 -5 -5 -4 -4 -4 -4 -4 -4 -4 -3 -3 -4 -4 -4 -4 -4 -4 -4 -4 -4 -4 -4 -4 -4 -4 -4 -4 -4 -4 -4 -4 -4 -4 -5 -5 -5 -5 -5 -6 -6 -6
-5 -4 -4 -4 -5 -5 -5 -5 -5 -5 -5 -5 -5 -5 -5 -5 -4 -5 -5 -5 -5 -5 -5 -4 -4 -4 -4 -4 -4 -4 -4 -3 -3 -3 -4 -4 -4 -4 -4 -4 -4 -4 -4 -4 -4 -4 -4 -4 -4 -4 -4 -4 -4 -4 -4 -5 -5 -5 -5 -6 -6 -6 -6
-6 -5 -4 -5 -5 -5 -5 -5 -5 -5 -5 -5 -5 -5 -5 -5 -5 -5 -4 -5 -5 -5 -5 -5 -4 -4 -4 -4 -4 -4 -4 -4 -3 -3 -4 -4 -4 -4 -4 -4 -4 -4 -4 -4 -4 -4 -4 -4 -4 -4 -4 -4 -4 -4 -5 -5 -5 -5 -5 -6 -6 -6 -6
-6 -5 -5 -4 -5 -5 -5 -5 -5 -5 -5 -5 -5 -5 -6 -6 -5 -5 -4 -5 -5 -5 -5 -5 -5 -5 -4 -4 -4 -4 -4 -4 -4 -3 -3 -4 -4 -4 -4 -4 -4 -4 -4 -4 -4 -4 -4 -4 -4 -4 -4 -4 -4 -4 -5 -5 -5 -5 -5 -6 -6 -6 -6
-5 -6 -6 -5 -4 -4 -5 -5 -5 -5 -5 -5 -5 -5 -6 -6 -6 -5 -5 -5 -5 -5 -5 -5 -5 -5 -5 -4 -4 -4 -4 -4 -4 -4 -4 -4 -4 -4 -4 -4 -4 -4 -4 -4 -4 -4 -4 -4 -4 -4 -4 -4 -4 -5 -5 -5 -5 -5 -5 -5 -5 -6 -6
-6 -6 -6 -5 -4 -4 -4 -5 -5 -5 -5 -5 -6 -5 -6 -6 -6 -5 -5 -5 -5 -5 -5 -5 -5 -5 -5 -5 -5 -4 -4 -4 -4 -4 -4 -4 -4 -4 -4 -4 -4 -4 -4 -4 -4 -4 -4 -4 -4 -4 -4 -4 -4 -5 -5 -5 -5 -5 -5 -5 -5 -5 -6
-7 -6 -6 -6 -5 -4 -4 -5 -5 -5 -5 -5 -6 -6 -6 -6 -6 -6 -5 -5 -5 -5 -5 -5 -5 -5 -5 -5 -5 -5 -4 -4 -4 -4 -4 -4 -4 -4 -4 -4 -4 -4 -4 -4 -4 -4 -4 -4 -4 -4 -4 -4 -5 -5 -5 -5 -5 -6 -6 -5 -5 -5 -5
-8 -8 -7 -6 -6 -5 -4 -4 -5 -6 -5 -5 -5 -6 -6 -6 -6 -6 -6 -5 -5 -5 -5 -5 -5 -5 -5 -5 -5 -5 -5 -5 -4 -4 -4 -4 -4 -4 -4 -4 -4 -4 -4 -4 -4 -4 -4 -4 -4 -4 -4 -4 -5 -5 -5 -5 -5 -6 -6 -5 -5 -5 -5
-7 -8 -8 -7 -6 -5 -5 -5 -5 -6 -6 -6 -6 -6 -6 -6 -6 -6 -6 -6 -5 -5 -5 -5 -5 -5 -5 -5 -5 -5 -5 -5 -5 -5 -4 -4 -4 -4 -4 -4 -4 -4 -4 -4 -4 -4 -4 -4 -4 -4 -4 -4 -5 -5 -5 -5 -5 -5 -6 -5 -5 -5 -5
-7 -8 -9 -8 -7 -6 -6 -6 -6 -6 -6 -6 -6 -6 -6 -6 -6 -6 -6 -6 -5 -5 -5 -5 -5 -5 -5 -5 -5 -5 -5 -5 -5 -5 -5 -4 -4 -4 -4 -4 -4 -4 -4 -4 -4 -4 -4 -5 -5 -5 -4 -4 -4 -5 -5 -5 -5 -5 -5 -5 -5 -5 -5
-7 -7 -7 -7 -7 -6 -6 -6 -5 -6 -6 -6 -6 -6 -6 -6 -6 -6 -6 -6 -5 -5 -6 -5 -5 -5 -6 -5 -5 -5 -5 -5 -5 -5 -5 -4 -4 -4 -4 -4 -4 -4 -4 -4 -4 -4 -4 -5 -5 -5 -5 -5 -4 -5 -5 -5 -5 -5 -5 -5 -5 -5 -5
-7 -7 -6 -6 -6 -6 -6 -5 -5 -5 -6 -6 -6 -7 -6 -6 -6 -6 -6 -6 -6 -6 -6 -5 -5 -6 -6 -6 -6 -5 -5 -5 -5 -5 -5 -5 -4 -4 -4 -4 -4 -4 -4 -4 -4 -4 -4 -4 -5 -5 -5 -5 -5 -5 -5 -5 -5 -5 -5 -5 -5 -5 -5
-8 -7 -6 -6 -6 -6 -6 -5 -5 -4 -5 -5 -6 -6 -6 -6 -6 -6 -6 -6 -6 -6 -6 -6 -6 -6 -6 -6 -6 -6 -5 -5 -5 -5 -5 -5 -5 -5 -4 -4 -4 -4 -4 -4 -4 -4 -4 -4 -4 -5 -5 -5 -5 -5 -5 -5 -5 -5 -5 -5 -5 -5 -5
-8 -7 -7 -6 -6 -6 -6 -5 -5 -4 -5 -5 -5 -5 -5 -4 -5 -5 -6 -6 -6 -6 -6 -6 -6 -6 -6 -6 -6 -6 -6 -5 -5 -5 -5 -5 -5 -5 -5 -4 -4 -4 -4 -4 -4 -4 -4 -4 -4 -5 -5 -5 -5 -5 -5 -5 -5 -5 -5 -5 -5 -5 -5
-8 -8 -7 -7 -6 -6 -6 -6 -5 -5 -5 -5 -5 -5 -4 -4 -4 -5 -5 -6 -6 -6 -6 -6 -6 -6 -6 -7 -7 -6 -6 -6 -6 -6 -5 -5 -5 -5 -5 -5 -5 -4 -4 -4 -4 -4 -4 -4 -4 -5 -5 -5 -5 -5 -5 -5 -5 -5 -5 -5 -5 -5 -5
-8 -8 -8 -7 -7 -7 -6 -6 -6 -6 -6 -5 -5 -5 -5 -5 -4 -5 -5 -6 -6 -6 -6 -6 -6 -6 -6 -7 -7 -7 -7 -6 -6 -6 -6 -6 -5 -5 -5 -5 -5 -5 -5 -4 -4 -4 -4 -4 -4 -4 -5 -5 -5 -5 -5 -5 -5 -5 -5 -5 -5 -5 -5
-8 -8 -8 -8 -7 -7 -6 -6 -6 -6 -6 -5 -5 -5 -5 -5 -5 -5 -5 -5 -5 -5 -6 -6 -6 -6 -6 -7 -7 -7 -7 -7 -6 -6 -6 -6 -5 -5 -5 -5 -5 -5 -5 -5 -4 -5 -5 -4 -4 -4 -4 -5 -5 -5 -5 -5 -5 -5 -5 -5 -5 -5 -5
-8 -8 -8 -8 -7 -7 -7 -6 -6 -6 -6 -5 -5 -5 -5 -6 -6 -5 -5 -5 -5 -5 -5 -6 -6 -6 -6 -6 -6 -6 -7 -7 -7 -7 -6 -6 -6 -5 -5 -5 -5 -5 -5 -5 -5 -5 -5 -5 -4 -4 -4 -4 -5 -5 -5 -5 -5 -5 -5 -5 -5 -5 -5
-8 -8 -8 -8 -7 -7 -7 -7 -6 -6 -6 -6 -6 -6 -6 -6 -6 -6 -5 -6 -6 -6 -6 -6 -5 -6 -6 -6 -6 -6 -7 -7 -7 -7 -7 -6 -6 -6 -6 -6 -5 -5 -5 -5 -5 -5 -5 -5 -5 -5 -5 -5 -5 -5 -5 -5 -5 -5 -5 -5 -5 -5 -5
-9 -8 -8 -8 -7 -7 -7 -7 -7 -6 -6 -6 -6 -6 -6 -6 -6 -6 -6 -6 -6 -6 -6 -6 -6 -6 -6 -6 -6 -6 -6 -7 -7 -7 -7 -7 -6 -6 -6 -6 -6 -5 -5 -5 -5 -5 -5 -5 -5 -5 -5 -5 -5 -5 -5 -5 -5 -5 -5 -5 -5 -5 -5
-9 -8 -8 -8 -8 -8 -7 -7 -7 -7 -6 -6 -6 -6 -6 -6 -6 -6 -6 -6 -6 -6 -6 -6 -6 -6 -6 -6 -7 -6 -6 -7 -7 -7 -7 -7 -7 -6 -6 -6 -6 -6 -5 -5 -5 -5 -5 -5 -5 -5 -5 -5 -5 -5 -5 -5 -5 -5 -5 -5 -5 -4 -4
-9 -9 -8 -8 -8 -8 -8 -8 -8 -7 -7 -6 -6 -6 -6 -6 -6 -6 -6 -6 -6 -6 -6 -6 -7 -6 -6 -7 -7 -7 -7 -7 -7 -7 -7 -7 -7 -7 -6 -6 -6 -6 -6 -5 -5 -5 -5 -5 -5 -5 -5 -5 -5 -5 -5 -5 -5 -5 -5 -5 -5 -5 -4
-9 -9 -9 -8 -8 -8 -8 -8 -8 -7 -7 -7 -7 -7 -7 -7 -6 -6 -6 -6 -6 -6 -6 -7 -7 -7 -6 -7 -7 -7 -7 -7 -7 -7 -7 -7 -7 -7 -6 -6 -6 -6 -6 -6 -5 -5 -5 -5 -5 -5 -5 -5 -5 -5 -5 -5 -5 -5 -5 -5 -5 -5 -4
-9 -9 -9 -8 -8 -8 -8 -8 -8 -7 -7 -7 -7 -7 -7 -7 -7 -7 -7 -7 -7 -7 -7 -7 -7 -7 -7 -7 -7 -7 -7 -7 -7 -7 -7 -7 -7 -7 -7 -6 -6 -6 -6 -6 -6 -5 -5 -5 -5 -5 -5 -5 -5 -5 -5 -5 -5 -5 -5 -5 -5 -5 -5
-9 -9 -9 -9 -8 -8 -8 -7 -7 -8 -8 -7 -7 -7 -7 -7 -7 -7 -7 -7 -7 -7 -7 -7 -7 -7 -7 -7 -7 -7 -7 -7 -7 -7 -7 -7 -7 -7 -7 -6 -6 -6 -6 -6 -6 -5 -5 -5 -5 -5 -5 -5 -5 -5 -5 -5 -5 -5 -5 -5 -5 -5 -5
-9 -9 -9 -9 -8 -8 -8 -8 -7 -7 -7 -7 -7 -7 -7 -7 -7 -7 -7 -7 -7 -8 -8 -7 -7 -8 -7 -7 -7 -7 -7 -7 -7 -7 -7 -7 -7 -7 -7 -7 -6 -6 -6 -6 -6 -5 -5 -5 -5 -5 -5 -5 -6 -6 -5 -5 -5 -5 -5 -5 -5 -5 -5
-9 -9 -9 -9 -9 -8 -8 -8 -7 -7 -7 -7 -7 -7 -7 -6 -7 -7 -7 -7 -7 -7 -7 -7 -7 -7 -7 -7 -7 -7 -7 -7 -7 -7 -7 -7 -7 -7 -7 -7 -7 -7 -6 -6 -6 -5 -5 -5 -5 -5 -5 -5 -6 -6 -6 -6 -6 -6 -6 -6 -6 -6 -6
-9 -9 -9 -9 -9 -9 -9 -8 -8 -7 -7 -7 -7 -6 -6 -6 -6 -7 -7 -7 -7 -7 -7 -7 -7 -7 -7 -7 -7 -7 -7 -7 -7 -7 -7 -7 -7 -7 -7 -7 -7 -7 -6 -6 -6 -5 -5 -5 -5 -5 -5 -5 -6 -6 -6 -6 -6 -6 -6 -6 -6 -6 -6
-9 -9 -9 -8 -9 -9 -9 -9 -8 -8 -7 -7 -7 -6 -6 -6 -6 -7 -7 -7 -7 -7 -7 -7 -7 -7 -7 -7 -7 -7 -7 -7 -7 -7 -7 -7 -7 -7 -7 -7 -7 -7 -6 -6 -5 -5 -5 -5 -5 -5 -5 -5 -6 -6 -6 -6 -6 -6 -6 -6 -6 -6 -6
-9 -9 -9 -8 -9 -9 -8 -8 -8 -8 -7 -7 -7 -6 -6 -6 -6 -7 -7 -6 -6 -6 -7 -7 -7 -7 -7 -7 -7 -7 -7 -7 -7 -7 -7 -7 -7 -7 -7 -7 -7 -6 -6 -6 -5 -5 -5 -5 -5 -5 -5 -5 -5 -6 -5 -5 -6 -6 -6 -6 -6 -6 -6
-9 -9 -9 -8 -8 -8 -8 -8 -8 -8 -7 -7 -7 -6 -6 -6 -6 -6 -6 -6 -6 -6 -6 -6 -7 -7 -6 -7 -7 -7 -7 -7 -7 -7 -7 -7 -7 -7 -7 -7 -6 -6 -6 -6 -5 -5 -5 -5 -5 -5 -5 -5 -5 -5 -5 -6 -6 -6 -6 -7 -7 -7 -7
-9 -9 -9 -9 -8 -8 -8 -8 -8 -8 -7 -7 -7 -6 -6 -6 -6 -6 -6 -6 -6 -6 -6 -6 -6 -6 -6 -6 -6 -6 -6 -6 -7 -7 -7 -7 -7 -7 -7 -7 -6 -6 -6 -6 -5 -5 -5 -5 -5 -5 -5 -5 -5 -5 -5 -6 -6 -6 -6 -6 -7 -7 -7
-9 -9 -9 -9 -8 -8 -8 -8 -8 -8 -7 -7 -7 -6 -6 -6 -6 -6 -6 -6 -6 -6 -6 -6 -6 -6 -6 -6 -6 -6 -6 -6 -6 -6 -7 -7 -7 -7 -7 -7 -7 -6 -6 -5 -5 -5 -5 -5 -5 -5 -6 -6 -6 -6 -6 -6 -6 -6 -6 -6 -7 -7 -7
-9 -9 -10 -9 -9 -8 -8 -7 -8 -8 -7 -7 -7 -6 -6 -6 -6 -6 -6 -6 -6 -5 -5 -5 -5 -5 -5 -5 -5 -5 -6 -6 -6 -6 -7 -7 -7 -7 -7 -7 -7 -6 -6 -6 -5 -5 -5 -6 -6 -6 -6 -6 -6 -6 -6 -6 -6 -6 -6 -7 -7 -7 -7
Height
5881 5882 5885 5887 5890 5891 5893 5895 5898 5900 5902 5904 5905 5906 5906 5905 5904 5905 5907 5909 5913 5916 5918 5921 5923 5926 5928 5930 5931 5933 5935 5937 5939 5940 5942 5943 5944 5946 5947 5949 5950 5951 5952 5954 5955 5956 5957 5958 5958 5959 5960 5960 5961 5962 5963 5963 5964 5964 5965 5965 5966 5967 5967
5878 5882 5885 5886 5888 5890 5892 5895 5897 5899 5901 5902 5903 5904 5906 5906 5904 5903 5905 5908 5911 5914 5917 5919 5922 5925 5927 5929 5930 5932 5934 5936 5938 5940 5941 5942 5944 5945 5946 5948 5949 5950 5952 5953 5954 5956 5957 5958 5958 5959 5960 5960 5961 5962 5963 5963 5964 5964 5965 5966 5966 5967 5968
5875 5880 5884 5886 5888 5889 5892 5894 5897 5898 5899 5900 5901 5903 5906 5907 5904 5902 5903 5906 5909 5912 5915 5918 5920 5923 5925 5928 5929 5931 5933 5935 5937 5939 5941 5942 5943 5944 5945 5947 5948 5949 5951 5953 5954 5955 5956 5957 5958 5959 5959 5960 5961 5962 5963 5963 5964 5964 5965 5966 5966 5967 5968
5873 5877 5881 5885 5887 5888 5890 5893 5894 5896 5897 5898 5899 5901 5905 5907 5904 5901 5901 5904 5907 5910 5913 5916 5919 5921 5923 5926 5928 5930 5932 5934 5936 5938 5940 5941 5942 5943 5945 5946 5947 5949 5950 5952 5953 5954 5956 5957 5958 5958 5959 5960 5960 5961 5962 5963 5964 5964 5965 5966 5967 5968 5968
5869 5873 5876 5881 5884 5884 5886 5889 5891 5892 5894 5896 5898 5900 5903 5906 5904 5899 5899 5902 5906 5909 5912 5914 5916 5919 5921 5924 5926 5929 5931 5933 5935 5937 5938 5940 5941 5943 5944 5946 5947 5948 5949 5951 5952 5954 5955 5956 5957 5958 5958 5959 5960 5961 5962 5963 5964 5964 5965 5966 5967 5968 5969
5864 5867 5872 5876 5879 5881 5882 5885 5887 5889 5892 5895 5897 5898 5901 5904 5904 5901 5898 5900 5904 5907 5910 5912 5915 5917 5920 5922 5924 5927 5929 5931 5934 5935 5937 5939 5940 5942 5944 5945 5946 5947 5949 5950 5951 5953 5954 5955 5956 5957 5958 5959 5960 5961 5962 5963 5963 5964 5965 5966 5967 5968 5968
5864 5863 5868 5873 5876 5878 5880 5882 5884 5888 5891 5894 5895 5897 5899 5902 5905 5903 5898 5897 5901 5905 5908 5911 5914 5916 5919 5921 5923 5925 5927 5930 5932 5934 5936 5937 5939 5941 5942 5944 5945 5947 5948 5949 5951 5952 5953 5954 5955 5956 5957 5958 5959 5960 5961 5962 5963 5964 5964 5965 5966 5967 5968
5864 5862 5864 5869 5872 5875 5878 5880 5883 5887 5889 5891 5893 5894 5896 5899 5902 5904 5901 5898 5899 5903 5907 5909 5912 5915 5917 5919 5922 5924 5926 5928 5930 5932 5934 5936 5938 5939 5941 5943 5944 5946 5947 5949 5950 5951 5952 5953 5954 5955 5956 5957 5958 5960 5960 5961 5962 5963 5964 5965 5965 5966 5967
5861 5861 5861 5864 5869 5873 5877 5879 5881 5883 5886 5888 5890 5892 5894 5896 5899 5902 5903 5900 5898 5900 5904 5907 5910 5913 5915 5917 5920 5922 5924 5926 5928 5930 5932 5935 5937 5938 5940 5941 5943 5944 5946 5948 5949 5950 5951 5952 5953 5954 5955 5956 5958 5959 5960 5961 5962 5962 5963 5964 5965 5966 5966
5857 5859 5859 5860 5864 5870 5875 5878 5878 5879 5882 5885 5887 5889 5891 5893 5896 5899 5901 5901 5899 5899 5901 5905 5908 5910 5913 5915 5917 5920 5921 5924 5926 5928 5931 5933 5935 5937 5939 5940 5941 5943 5945 5946 5948 5949 5950 5951 5952 5953 5954 5956 5957 5958 5959 5960 5961 5962 5962 5963 5964 5965 5966
5853 5855 5857 5858 5860 5865 5871 5875 5875 5876 5879 5882 5885 5887 5890 5892 5894 5897 5899 5901 5900 5898 5899 5903 5906 5908 5911 5913 5915 5917 5920 5922 5924 5926 5929 5932 5934 5936 5937 5939 5940 5942 5944 5945 5947 5948 5949 5950 5951 5952 5953 5954 5956 5957 5958 5959 5960 5961 5962 5963 5964 5965 5965
5848 5851 5854 5856 5858 5861 5866 5872 5874 5874 5877 5880 5882 5885 5888 5890 5892 5894 5896 5898 5899 5898 5898 5901 5905 5907 5909 5910 5913 5915 5918 5919 5922 5924 5927 5930 5932 5934 5935 5937 5939 5941 5942 5944 5946 5947 5948 5949 5950 5951 5952 5953 5954 5955 5957 5958 5959 5960 5961 5962 5963 5964 5965
5848 5852 5854 5856 5858 5859 5862 5867 5870 5871 5874 5877 5879 5882 5884 5887 5889 5892 5894 5895 5897 5897 5897 5900 5903 5905 5907 5909 5911 5913 5915 5918 5920 5922 5924 5927 5929 5931 5933 5935 5937 5939 5941 5942 5944 5946 5947 5948 5949 5950 5951 5952 5953 5954 5955 5957 5958 5960 5961 5962 5962 5963 5964
5844 5847 5848 5850 5853 5854 5856 5860 5865 5868 5870 5872 5875 5877 5880 5883 5886 5888 5891 5892 5894 5895 5896 5898 5902 5904 5905 5907 5909 5912 5914 5915 5917 5920 5922 5924 5926 5928 5930 5933 5935 5937 5939 5940 5942 5944 5946 5947 5948 5949 5950 5951 5952 5953 5954 5955 5957 5959 5960 5961 5962 5962 5963
5836 5839 5839 5842 5845 5848 5851 5856 5860 5863 5866 5869 5872 5874 5876 5879 5882 5885 5887 5889 5891 5893 5895 5897 5899 5902 5903 5905 5907 5909 5911 5913 5915 5917 5919 5921 5923 5926 5928 5930 5932 5935 5937 5938 5940 5942 5944 5945 5946 5947 5948 5949 5951 5952 5953 5954 5956 5958 5959 5960 5961 5961 5962
5830 5833 5836 5839 5842 5846 5850 5853 5856 5858 5861 5863 5866 5869 5872 5875 5877 5880 5883 5886 5887 5890 5892 5894 5897 5900 5902 5903 5905 5907 5909 5911 5913 5915 5917 5919 5921 5923 5926 5928 5930 5932 5935 5936 5938 5939 5941 5943 5945 5946 5947 5948 5949 5951 5952 5954 5955 5956 5957 5958 5959 5960 5961
5825 5828 5832 5836 5840 5844 5847 5849 5851 5854 5856 5856 5858 5861 5864 5868 5873 5876 5879 5882 5884 5887 5889 5892 5895 5897 5900 5901 5903 5904 5906 5908 5910 5912 5915 5917 5919 5921 5923 5925 5927 5929 5932 5934 5935 5937 5939 5940 5942 5944 5945 5946 5947 5949 5951 5952 5954 5955 5956 5956 5957 5959 5960
5822 5826 5830 5834 5837 5840 5843 5846 5848 5851 5853 5855 5857 5858 5856 5859 5865 5870 5874 5878 5882 5884 5886 5889 5892 5895 5897 5899 5900 5902 5904 5906 5908 5910 5912 5914 5916 5918 5920 5922 5924 5926 5929 5931 5933 5934 5936 5938 5940 5941 5943 5944 5945 5947 5949 5950 5952 5953 5954 5955 5955 5957 5958
5820 5824 5828 5830 5833 5836 5840 5843 5846 5848 5851 5855 5859 5861 5859 5858 5860 5864 5869 5874 5878 5880 5883 5887 5890 5892 5895 5897 5899 5900 5902 5904 5906 5908 5910 5912 5914 5916 5918 5920 5922 5924 5926 5928 5930 5931 5933 5935 5937 5938 5940 5941 5943 5944 5946 5947 5949 5951 5952 5953 5954 5955 5956
5817 5820 5823 5826 5828 5832 5834 5837 5841 5844 5846 5850 5854 5857 5859 5860 5860 5862 5867 5870 5872 5875 5879 5884 5887 5889 5892 5895 5897 5899 5900 5902 5904 5906 5908 5910 5911 5914 5916 5918 5920 5922 5923 5925 5927 5929 5930 5932 5934 5935 5936 5938 5940 5941 5943 5944 5946 5948 5949 5950 5951 5953 5954
5813 5815 5818 5821 5824 5828 5830 5833 5837 5839 5842 5846 5849 5851 5854 5857 5859 5861 5864 5865 5867 5870 5875 5880 5883 5886 5890 5893 5895 5897 5899 5900 5902 5904 5905 5907 5909 5911 5913 5915 5917 5919 5920 5922 5924 5926 5927 5928 5930 5932 5933 5935 5936 5938 5939 5941 5943 5945 5946 5947 5949 5950 5952
5809 5811 5814 5817 5821 5824 5827 5830 5833 5836 5840 5843 5846 5848 5850 5853 5856 5858 5861 5864 5867 5872 5875 5877 5880 5884 5888 5890 5893 5896 5897 5899 5901 5902 5903 5905 5907 5909 5911 5912 5914 5916 5917 5919 5921 5922 5923 5925 5927 5929 5930 5932 5933 5935 5936 5938 5940 5941 5943 5944 5945 5947 5949
5804 5808 5811 5814 5818 5821 5824 5826 5830 5833 5837 5839 5843 5845 5847 5850 5853 5854 5858 5863 5868 5873 5876 5877 5878 5882 5885 5888 5890 5893 5895 5897 5899 5900 5902 5903 5905 5907 5908 5909 5911 5913 5914 5916 5917 5919 5921 5922 5923 5925 5927 5928 5930 5932 5933 5934 5936 5938 5939 5940 5942 5943 5946
5799 5804 5807 5810 5814 5817 5820 5823 5827 5830 5833 5836 5839 5842 5844 5849 5852 5854 5856 5861 5865 5870 5873 5875 5877 5880 5883 5886 5888 5890 5893 5895 5897 5898 5900 5901 5902 5904 5905 5906 5908 5909 5911 5912 5914 5915 5917 5918 5919 5921 5923 5925 5926 5928 5929 5931 5933 5935 5936 5937 5938 5940 5942
5795 5800 5803 5806 5810 5813 5817 5820 5823 5826 5830 5833 5835 5838 5840 5845 5850 5853 5855 5858 5862 5865 5868 5872 5874 5878 5881 5883 5885 5887 5889 5892 5894 5896 5897 5899 5900 5901 5903 5904 5905 5906 5907 5909 5910 5912 5913 5915 5916 5918 5919 5921 5922 5924 5926 5927 5929 5931 5932 5933 5935 5937 5939
5792 5796 5800 5803 5806 5809 5812 5816 5819 5823 5826 5829 5832 5835 5837 5841 5846 5849 5853 5856 5859 5861 5865 5869 5873 5875 5878 5880 5881 5883 5886 5889 5891 5893 5895 5896 5897 5899 5900 5901 5902 5904 5905 5906 5907 5908 5910 5911 5913 5914 5916 5918 5919 5920 5922 5924 5926 5928 5929 5930 5931 5933 5935
5788 5792 5795 5799 5802 5805 5808 5811 5815 5819 5822 5826 5829 5832 5834 5837 5841 5845 5849 5852 5855 5858 5863 5867 5870 5871 5873 5875 5877 5880 5883 5885 5888 5890 5892 5893 5894 5895 5897 5898 5900 5901 5902 5903 5903 5905 5906 5908 5909 5911 5912 5914 5915 5917 5919 5921 5923 5924 5926 5926 5928 5929 5931
5784 5787 5791 5794 5797 5800 5803 5807 5811 5815 5818 5822 5825 5828 5831 5834 5837 5841 5845 5848 5851 5856 5861 5863 5865 5866 5868 5871 5874 5877 5879 5882 5884 5886 5888 5889 5891 5892 5893 5895 5896 5898 5899 5899 5900 5901 5903 5904 5906 5907 5909 5910 5912 5914 5916 5917 5919 5921 5922 5923 5924 5925 5928
5779 5782 5786 5790 5793 5796 5799 5803 5806 5810 5814 5818 5821 5825 5827 5830 5833 5837 5841 5844 5849 5855 5857 5858 5860 5862 5864 5867 5870 5873 5875 5878 5880 5882 5884 5886 5888 5889 5890 5891 5893 5894 5895 5896 5897 5898 5899 5901 5902 5904 5905 5907 5908 5910 5912 5913 5915 5917 5918 5919 5920 5922 5924
5775 5778 5781 5785 5788 5791 5795 5799 5802 5805 5809 5813 5817 5821 5823 5826 5829 5833 5836 5841 5847 5851 5852 5852 5856 5858 5860 5863 5866 5869 5871 5874 5876 5878 5880 5882 5884 5885 5887 5888 5889 5890 5892 5892 5893 5894 5896 5897 5899 5900 5902 5903 5905 5906 5908 5910 5911 5913 5915 5916 5917 5918 5920
5770 5774 5777 5780 5784 5787 5790 5795 5798 5801 5805 5808 5813 5817 5819 5821 5825 5829 5832 5838 5843 5846 5846 5848 5852 5855 5857 5860 5862 5865 5867 5869 5872 5873 5876 5878 5880 5881 5883 5884 5885 5887 5888 5889 5889 5891 5893 5894 5895 5897 5898 5900 5901 5903 5904 5906 5908 5910 5911 5912 5913 5915 5917
5765 5770 5773 5776 5780 5783 5786 5790 5794 5798 5801 5804 5808 5812 5814 5817 5821 5824 5829 5834 5839 5841 5841 5843 5847 5851 5854 5857 5859 5860 5862 5865 5867 5869 5871 5873 5875 5877 5879 5880 5881 5883 5884 5885 5886 5888 5889 5891 5892 5893 5894 5896 5897 5899 5900 5902 5904 5906 5907 5908 5910 5912 5914
5760 5765 5769 5772 5776 5779 5782 5785 5789 5794 5798 5801 5804 5808 5810 5813 5817 5820 5824 5829 5833 5836 5837 5839 5843 5847 5850 5853 5854 5856 5858 5860 5863 5865 5867 5869 5871 5872 5874 5876 5877 5879 5881 5882 5883 5885 5886 5888 5889 5889 5890 5892 5893 5895 5896 5898 5900 5902 5904 5905 5907 5909 5910
5754 5760 5764 5768 5771 5775 5778 5781 5785 5789 5793 5797 5801 5803 5806 5809 5813 5816 5819 5823 5827 5830 5832 5834 5838 5842 5846 5848 5850 5851 5853 5856 5858 5861 5863 5864 5866 5868 5870 5872 5874 5876 5877 5879 5879 5881 5883 5884 5885 5886 5887 5888 5889 5891 5892 5894 5896 5899 5901 5902 5904 5905 5906
5749 5754 5759 5764 5767 5770 5774 5777 5781 5784 5788 5792 5796 5799 5802 5805 5808 5811 5814 5818 5822 5825 5827 5829 5832 5837 5840 5842 5844 5845 5848 5851 5853 5856 5858 5859 5861 5864 5866 5868 5870 5872 5873 5874 5875 5877 5878 5879 5881 5882 5883 5884 5885 5887 5889 5891 5893 5896 5898 5899 5900 5901 5902
5745 5748 5753 5759 5763 5766 5770 5774 5777 5780 5784 5787 5791 5795 5797 5800 5803 5806 5810 5813 5817 5819 5820 5822 5827 5831 5835 5837 5838 5840 5843 5846 5848 5850 5852 5854 5857 5860 5862 5864 5866 5867 5869 5870 5871 5873 5874 5875 5877 5878 5879 5880 5882 5884 5886 5888 5890 5891 5893 5895 5896 5898 5899
5740 5744 5749 5754 5759 5762 5766 5770 5773 5776 5779 5782 5786 5790 5793 5796 5799 5802 5805 5808 5811 5813 5815 5818 5822 5826 5829 5830 5832 5834 5837 5840 5842 5844 5846 5849 5852 5855 5857 5859 5861 5863 5864 5866 5867 5868 5870 5871 5873 5874 5875 5877 5879 5881 5882 5884 5886 5887 5889 5892 5893 5894 5896
5735 5740 5745 5750 5754 5759 5763 5767 5770 5772 5774 5777 5781 5785 5788 5791 5794 5797 5800 5803 5805 5808 5811 5814 5818 5822 5824 5825 5827 5829 5831 5833 5835 5837 5840 5843 5847 5850 5852 5854 5856 5857 5860 5862 5863 5864 5866 5867 5869 5870 5872 5874 5876 5878 5879 5881 5882 5884 5886 5888 5890 5891 5893
Wind_Speed
26 26 25 23 23 21 19 20 22 20 18 16 13 13 12 10 13 17 19 20 21 21 22 22 23 23 23 23 23 22 21 19 18 18 19 19 19 19 18 17 17 16 15 14 13 12 11 10 9 9 8 8 7 7 6 6 6 6 6 5 5 4 3
26 24 22 22 21 20 21 22 24 22 19 17 14 13 13 10 11 15 18 20 21 22 22 22 23 23 24 24 24 24 22 20 19 18 19 20 20 19 19 19 18 18 17 16 15 14 12 12 11 10 9 9 9 8 7 6 6 6 5 5 4 3 1
30 27 22 19 18 20 23 25 25 22 20 18 14 12 13 12 11 13 16 19 21 23 23 23 23 23 25 25 26 25 23 21 20 19 19 20 20 20 20 20 20 19 18 17 16 15 14 13 12 12 11 10 10 9 8 7 6 6 5 5 3 2 3
32 30 27 23 22 24 25 26 25 23 20 18 16 14 15 16 13 13 14 17 20 22 23 23 23 24 25 26 27 26 24 22 21 20 20 20 21 21 21 20 20 20 20 19 18 17 16 15 14 13 13 12 12 10 8 7 7 6 5 5 5 6 6
36 32 31 30 30 30 27 24 23 22 22 21 18 17 17 19 16 13 13 15 17 20 23 24 25 25 26 27 28 27 26 24 22 22 21 21 21 21 20 20 20 21 20 20 19 18 17 17 16 16 15 14 13 10 8 8 7 6 7 7 7 7 6
38 34 31 29 29 31 29 25 22 22 23 23 21 18 18 19 17 14 14 13 15 18 21 24 25 24 25 27 28 28 28 26 24 23 23 22 22 21 21 20 20 20 21 20 20 19 18 18 18 18 17 15 13 11 9 9 8 9 9 8 7 6 5
34 37 34 30 27 28 27 26 24 23 24 26 24 20 17 18 18 15 14 14 13 14 17 20 23 23 24 25 27 29 29 28 26 24 24 24 23 22 21 21 20 20 20 20 20 19 19 19 19 19 18 16 14 12 11 11 11 11 10 8 7 6 5
32 36 38 37 33 29 26 26 25 25 26 27 26 21 18 18 18 17 14 13 13 12 13 17 20 23 24 25 26 28 29 29 28 26 25 25 24 23 22 21 21 20 20 19 19 19 19 19 19 19 18 16 14 13 13 13 13 12 11 9 8 7 6
29 31 35 40 39 33 27 26 27 27 26 26 25 23 20 20 20 19 17 13 12 11 10 14 17 21 24 25 25 27 29 31 30 28 27 26 25 24 23 23 22 21 20 19 19 19 19 19 18 18 17 16 15 15 15 15 14 13 12 11 9 8 7
28 30 33 38 39 34 28 27 29 29 26 25 25 25 24 22 21 21 20 16 12 11 10 11 14 18 22 24 25 26 28 30 31 30 28 26 26 25 24 24 23 21 20 20 20 20 20 19 18 17 17 16 16 17 17 17 16 15 13 12 10 9 8
26 29 32 36 38 34 29 29 30 30 29 27 26 25 25 24 22 21 20 18 14 11 10 11 12 15 19 23 25 26 26 28 30 31 30 28 26 26 26 25 24 22 21 20 20 20 20 20 19 18 17 17 17 18 19 19 18 16 15 13 11 10 10
27 28 31 35 36 35 32 30 30 32 31 29 28 26 26 26 25 22 21 20 17 13 12 12 11 13 17 20 23 25 26 27 28 29 30 29 28 27 27 26 25 24 23 22 21 21 21 20 19 19 18 18 19 20 21 21 20 18 16 15 13 11 11
27 26 28 32 32 32 32 31 31 32 32 29 29 27 27 29 28 24 23 23 20 17 15 13 12 13 15 18 20 23 25 26 27 28 29 29 30 30 29 28 27 25 24 23 22 21 21 21 20 20 20 20 21 22 22 22 21 20 18 16 14 13 12
29 30 30 30 30 30 32 33 33 32 32 31 30 30 30 31 30 28 27 27 24 20 17 15 14 13 15 16 17 20 23 26 26 27 28 29 31 31 31 30 28 27 26 25 23 22 22 22 22 21 21 21 21 22 23 23 22 22 20 18 16 15 14
34 37 37 35 35 34 34 34 35 35 34 32 32 33 34 33 33 32 31 30 27 22 19 18 16 15 15 15 15 17 21 24 26 27 27 28 30 30 31 31 30 28 27 26 25 24 23 23 23 23 23 22 22 22 23 23 23 22 22 20 18 17 15
37 38 38 36 36 35 34 34 36 38 37 36 36 37 37 37 37 36 33 30 28 24 22 20 17 16 15 15 15 16 18 22 24 26 26 27 27 28 30 31 31 30 28 27 27 26 25 24 24 24 24 24 23 22 22 23 23 23 23 22 20 18 16
41 39 38 38 37 37 37 37 38 39 40 42 43 43 43 42 39 36 34 31 28 26 25 22 19 17 16 15 16 16 16 19 21 24 25 25 26 26 27 29 31 31 30 29 28 28 26 25 25 25 25 26 25 24 22 23 24 24 24 24 22 19 17
41 40 39 40 40 40 39 39 40 40 40 42 43 44 46 46 42 38 36 32 29 28 27 25 21 19 17 16 17 17 16 17 19 21 23 24 25 25 25 27 29 31 30 29 29 29 28 27 26 25 26 26 26 26 24 24 24 24 25 25 24 22 18
39 40 40 40 42 41 40 40 40 41 41 40 39 40 41 41 41 40 37 33 31 30 29 27 24 21 20 18 17 17 17 17 17 19 21 22 23 24 24 24 25 27 29 29 30 30 30 29 28 27 27 27 26 27 26 25 25 24 25 25 25 23 20
40 41 42 43 43 43 43 42 42 43 45 43 42 42 40 38 39 39 36 35 35 34 33 31 28 24 23 21 19 18 18 17 16 17 19 20 22 22 22 22 22 24 26 27 28 30 30 30 30 29 29 28 27 27 27 27 26 25 26 26 26 24 22
42 42 44 45 45 45 45 44 44 44 46 45 43 43 43 41 40 39 38 39 39 37 35 32 29 26 24 23 21 19 19 18 16 16 17 19 20 20 20 21 21 22 23 24 25 27 29 30 31 31 30 30 29 28 27 27 27 27 27 27 26 25 23
45 44 44 45 45 45 45 45 45 43 43 43 43 44 45 44 42 41 40 38 35 33 33 32 30 28 26 23 22 20 19 18 17 16 17 18 18 19 19 20 20 21 22 23 23 24 26 28 29 30 31 31 31 29 28 28 27 27 28 28 28 27 25
46 44 44 44 44 46 46 46 45 44 42 41 41 43 45 44 42 41 39 34 31 30 32 32 30 28 26 23 22 21 20 19 18 17 17 17 18 18 18 20 20 20 21 22 23 23 24 26 27 28 29 31 31 30 29 29 28 27 28 29 30 28 26
46 45 44 43 44 46 47 47 46 45 44 42 41 43 44 43 41 40 37 34 31 31 31 30 29 28 25 23 23 22 21 21 20 18 18 18 18 17 18 19 20 21 21 22 23 24 24 26 27 27 28 29 30 31 30 30 29 27 28 29 30 28 26
46 45 43 43 44 45 46 46 46 47 46 45 44 44 44 44 42 39 38 36 34 33 31 29 29 28 25 23 24 24 23 23 22 20 19 19 19 19 19 19 20 22 22 23 23 24 25 26 27 27 27 28 29 30 30 30 29 28 28 28 29 28 27
45 45 43 43 44 45 46 46 46 47 47 46 45 45 45 45 42 40 39 38 36 34 32 29 29 29 26 25 26 27 26 24 23 22 21 21 21 21 21 21 21 22 23 24 24 25 25 26 26 27 27 27 28 29 29 29 28 27 27 28 28 28 27
42 43 43 44 45 45 46 46 45 46 47 47 47 47 47 46 43 41 41 39 38 35 31 30 31 31 29 27 27 28 27 25 24 24 23 23 23 23 23 23 22 22 23 24 25 26 26 26 26 27 26 26 27 27 27 27 27 27 27 28 28 28 28
46 45 45 45 46 46 47 47 47 47 48 48 48 48 49 48 46 44 43 42 39 35 32 32 33 33 30 28 27 28 28 27 26 25 25 25 25 25 25 24 23 24 24 25 26 27 26 26 26 27 26 26 26 26 25 26 26 27 27 28 29 29 28
52 51 50 49 48 48 47 48 49 49 49 50 50 49 49 49 48 46 45 45 42 37 35 36 36 34 32 30 29 29 29 29 28 28 27 26 26 26 26 25 25 25 25 26 26 27 27 26 26 26 26 25 25 24 24 25 26 26 27 28 29 29 28
54 54 55 52 50 49 48 48 49 50 51 51 50 50 50 50 49 48 47 46 43 39 40 40 38 36 35 33 32 31 31 31 31 30 29 28 27 28 28 26 26 26 26 27 27 27 27 26 26 25 25 24 24 24 24 24 25 25 26 27 28 28 27
57 55 57 56 52 49 48 48 48 49 51 51 50 50 51 51 50 50 49 47 44 43 44 44 41 38 38 36 36 35 34 33 33 33 31 29 29 30 29 27 26 27 27 28 28 27 27 26 25 25 24 24 25 25 24 24 24 24 25 26 27 27 26
61 57 57 57 53 50 48 47 47 47 49 50 50 50 50 50 50 51 50 49 47 47 48 47 44 41 40 40 40 40 38 36 35 34 32 31 31 31 30 28 27 28 28 29 29 28 27 26 25 25 25 26 26 26 26 25 24 25 26 27 26 26 25
63 59 58 56 53 51 50 48 46 45 45 47 48 49 50 50 50 51 51 49 48 49 50 49 46 43 42 42 42 43 41 39 38 36 34 33 32 31 29 28 28 28 28 28 28 28 27 26 26 26 26 27 27 26 27 27 26 26 26 27 26 25 26
63 60 59 56 53 52 51 49 47 45 44 44 46 47 48 49 50 52 52 49 47 48 49 49 48 44 43 43 44 45 43 41 40 39 37 35 34 30 28 28 28 28 27 27 28 28 27 26 26 26 27 27 27 27 27 26 26 26 26 27 27 27 26
61 60 60 59 56 55 53 50 48 46 44 43 44 45 46 47 49 50 51 48 47 47 48 48 48 46 44 44 46 46 44 43 42 41 39 39 35 30 27 27 28 27 28 29 29 28 28 27 27 27 27 28 27 27 26 26 26 27 27 28 28 28 27
57 57 57 58 57 56 54 51 49 47 46 44 44 44 45 47 48 49 48 46 45 46 47 48 48 45 44 46 47 47 45 43 43 42 41 40 37 31 28 28 29 29 29 29 29 29 27 27 27 27 27 28 27 26 26 26 27 28 29 29 29 28 28
55 52 53 55 57 55 54 52 50 48 48 46 45 45 45 46 47 47 46 45 44 45 45 46 45 44 45 47 48 47 46 44 43 42 42 41 36 31 29 30 30 31 30 30 29 29 28 27 27 27 27 27 27 27 27 28 29 30 29 28 28 28 27
58 51 49 52 55 54 53 51 50 49 49 48 46 46 46 46 46 45 45 44 43 43 42 41 41 42 44 47 48 47 47 46 45 44 43 41 36 32 31 33 33 32 31 29 28 28 28 27 27 28 28 27 27 28 28 29 29 29 28 27 27 27 27
Wind_Direction
227 234 238 239 235 229 225 229 235 236 235 236 240 246 242 222 200 198 201 208 216 220 222 220 217 213 209 209 211 212 214 211 204 199 197 196 196 195 192 191 190 187 186 186 186 187 190 194 199 204 209 216 221 222 222 229 238 244 248 252 254 253 253
237 239 241 245 244 237 231 230 232 234 232 229 231 242 244 229 200 193 197 204 211 217 220 221 220 217 213 211 213 216 216 213 208 204 202 201 199 197 195 194 192 190 188 187 187 189 192 196 204 210 215 223 230 233 234 237 244 249 250 250 253 252 235
246 247 244 244 246 242 236 233 232 231 230 227 225 234 244 236 205 187 193 202 208 213 217 220 220 218 216 214 215 218 219 216 211 207 208 207 204 202 199 197 196 194 191 189 190 192 194 199 207 214 219 225 232 238 240 240 241 243 242 234 217 179 141
253 253 246 242 246 243 234 231 231 229 229 230 226 225 236 236 210 182 188 201 209 213 215 218 221 220 218 217 217 218 220 220 215 210 210 212 211 207 204 201 200 199 195 193 195 196 198 203 210 216 221 226 233 239 240 237 232 224 213 191 161 145 136
260 256 247 243 244 242 238 234 232 231 232 234 229 222 229 235 217 183 180 198 209 214 215 216 219 219 218 217 218 219 220 221 218 214 212 214 215 213 210 208 207 205 202 200 201 201 202 207 212 218 222 226 231 235 234 227 215 195 180 168 156 150 147
259 254 245 242 241 240 242 242 235 234 237 236 231 225 230 238 228 197 178 187 206 215 219 220 221 221 221 220 218 219 220 221 220 217 215 216 217 216 215 214 213 211 208 208 208 207 208 211 214 218 223 226 229 228 222 212 196 181 175 174 173 172 173
252 251 244 241 241 237 238 243 241 237 234 232 229 229 232 239 239 223 192 179 194 212 220 224 225 224 225 225 223 221 222 222 221 220 218 218 219 218 217 217 218 216 214 214 214 212 213 215 217 220 223 226 227 221 212 201 190 185 186 189 196 203 207
243 248 245 242 241 238 238 241 239 234 231 229 228 227 230 235 243 244 222 191 184 198 214 222 225 225 225 226 226 226 226 224 222 221 219 219 221 221 220 219 220 220 218 219 219 217 219 220 220 222 224 225 223 216 208 199 193 193 197 204 211 219 228
236 238 243 245 241 238 239 237 234 232 232 233 231 226 224 227 236 245 240 217 190 185 203 217 222 225 225 226 226 227 228 228 226 224 221 220 222 224 224 222 222 222 220 221 222 222 224 225 225 226 226 224 220 213 208 202 199 200 205 211 216 224 237
236 232 236 243 243 238 231 228 233 236 235 235 235 230 226 224 228 236 241 237 212 187 194 212 217 222 225 226 227 227 229 230 229 228 225 222 223 225 228 228 227 226 223 222 223 224 227 229 229 230 229 226 220 214 210 206 204 206 211 215 218 224 238
228 229 231 238 243 241 228 220 229 238 237 234 231 230 229 227 227 233 241 244 232 206 199 211 218 222 225 226 227 228 230 232 232 231 229 226 225 226 229 231 232 231 228 226 224 226 229 231 231 231 229 226 221 216 213 211 209 210 215 221 222 225 235
214 220 227 232 237 240 233 223 225 234 236 233 228 226 227 227 227 231 236 240 239 226 214 216 221 225 226 227 227 227 229 232 234 234 233 230 228 228 229 231 233 234 232 230 228 228 231 234 233 232 230 226 222 218 216 215 214 214 218 225 229 231 236
207 211 224 232 236 240 238 227 221 226 229 229 228 227 226 227 228 230 234 239 240 234 228 225 225 229 232 232 229 228 229 232 234 235 235 233 231 230 230 231 233 235 235 233 231 230 233 237 237 235 234 230 226 223 221 219 218 218 221 227 234 238 241
199 198 208 218 224 229 232 225 216 217 223 225 226 226 225 227 229 231 234 238 239 236 235 234 230 231 236 237 234 230 230 232 233 235 235 234 232 231 231 233 234 236 237 237 235 233 234 237 240 240 239 237 233 229 227 225 222 222 224 228 235 242 247
204 205 208 212 214 215 220 222 215 213 219 223 226 227 225 225 229 232 234 237 240 238 238 240 237 232 235 239 239 235 232 232 233 235 237 236 234 233 232 234 235 235 238 240 239 237 235 236 239 242 244 244 242 237 233 231 227 225 227 230 234 241 248
208 210 213 217 220 217 217 220 217 213 213 216 219 223 225 225 227 230 234 237 241 241 241 243 241 235 235 239 243 241 237 235 234 235 238 239 239 237 235 235 236 236 237 240 241 240 238 237 238 242 245 247 248 245 239 236 233 229 229 233 235 239 246
209 210 213 218 221 220 218 218 218 215 212 213 214 216 221 224 225 229 233 235 238 240 243 243 241 238 236 237 242 243 242 239 236 235 237 240 242 241 238 237 238 238 237 238 241 242 240 239 239 241 244 247 250 251 246 241 238 234 233 235 238 240 244
211 212 216 219 221 221 220 219 221 220 217 215 215 214 215 218 220 223 227 231 236 240 242 241 238 237 236 236 240 244 245 243 239 237 237 239 242 244 243 240 240 241 240 239 241 242 242 241 240 241 243 245 248 251 251 247 243 239 237 237 241 243 245
212 212 214 218 221 221 221 220 221 222 221 219 218 217 216 217 219 220 222 227 232 235 238 239 236 234 234 235 236 243 249 248 243 240 239 240 242 244 246 245 244 245 245 243 243 244 244 243 242 242 242 244 246 248 250 249 247 244 241 240 243 245 247
213 212 213 216 218 219 220 221 220 220 221 223 224 225 227 228 227 224 222 225 228 229 231 233 232 230 231 232 231 236 246 250 248 245 243 243 244 245 247 249 248 249 250 248 246 247 247 246 245 244 244 244 245 246 247 248 248 246 244 243 244 246 247
214 214 214 215 215 217 220 222 222 221 222 224 227 228 231 235 235 231 227 226 227 228 229 231 232 230 228 229 228 229 238 246 249 249 247 245 246 247 248 250 249 251 253 253 251 250 249 248 247 247 247 246 246 246 246 247 247 246 245 244 245 246 246
212 215 216 215 215 217 220 222 224 224 224 226 228 229 231 234 235 234 232 231 233 234 234 234 235 231 228 228 228 226 231 239 244 248 250 248 246 246 249 250 250 252 253 254 253 252 252 251 249 248 248 248 248 248 248 248 247 245 245 245 245 245 244
209 214 217 217 217 217 219 222 224 225 226 228 229 231 232 232 232 234 233 233 236 237 238 240 241 238 232 230 230 228 227 232 238 243 249 251 248 246 247 249 249 250 251 253 254 253 253 254 252 249 248 248 249 249 248 249 248 245 244 244 245 244 243
207 211 215 218 218 218 220 222 224 224 226 228 230 232 232 230 232 235 235 233 232 233 237 240 243 244 240 234 234 233 229 230 235 239 245 250 251 248 248 249 249 249 248 249 251 251 251 252 252 251 248 248 248 248 248 248 248 247 245 245 245 244 243
206 209 213 216 217 219 220 222 223 223 225 227 229 231 231 230 232 235 236 236 234 233 233 234 238 245 245 239 236 236 233 231 233 236 241 247 251 250 250 250 249 248 248 247 248 249 249 250 252 253 251 249 248 248 247 248 248 249 248 248 247 246 243
207 210 213 216 217 219 220 220 221 222 224 227 228 230 232 233 233 233 235 237 237 236 235 235 239 246 246 240 236 237 236 234 232 234 239 244 249 252 252 251 251 250 250 250 249 249 248 249 251 253 253 251 250 249 248 248 248 248 249 250 249 247 244
210 213 215 216 218 219 220 221 221 222 223 225 227 230 232 233 234 234 234 236 237 238 239 239 243 247 246 240 237 237 238 237 235 235 238 242 247 251 252 252 253 252 252 252 252 251 250 249 250 252 253 252 251 250 249 248 247 246 247 248 248 247 244
216 219 220 219 219 219 220 222 222 222 224 225 226 229 231 232 233 234 235 237 239 241 241 242 245 249 249 246 242 240 239 240 239 238 240 242 245 250 253 254 254 254 253 253 253 253 252 250 249 251 252 252 251 250 249 248 247 245 245 246 246 246 243
221 221 221 221 220 219 219 221 222 223 224 224 226 228 229 230 232 232 234 236 238 239 241 243 246 249 251 250 247 244 241 240 241 242 243 244 246 248 252 254 255 255 255 254 253 253 253 252 250 249 250 251 251 250 248 247 246 244 244 244 244 243 241
219 218 219 220 220 219 218 219 221 224 224 224 225 226 228 230 231 232 233 234 235 237 240 243 244 246 250 252 250 247 244 242 242 244 245 246 247 247 249 253 255 256 256 255 254 252 251 251 249 248 248 249 250 250 247 246 245 243 241 241 241 240 239
218 215 217 219 219 219 219 219 220 223 225 225 225 224 227 229 230 232 233 234 234 236 239 242 244 245 248 251 250 248 247 244 243 244 246 247 247 247 249 251 253 255 255 254 254 252 250 249 248 246 246 245 246 247 246 244 243 240 238 237 237 238 238
218 215 216 217 218 219 221 221 221 222 224 226 226 225 226 228 230 232 233 233 233 235 239 242 244 244 246 248 249 248 247 244 244 244 245 246 247 248 249 250 251 253 252 251 252 250 248 246 244 243 243 243 244 245 245 244 240 235 233 234 234 236 237
219 215 214 216 218 220 221 223 224 223 224 225 227 227 227 229 231 233 235 234 233 235 238 241 242 243 243 245 246 246 245 244 243 244 245 246 247 248 248 248 250 251 249 249 250 249 246 243 242 241 242 243 244 244 244 243 238 231 230 232 235 236 237
220 217 215 216 219 221 222 225 226 226 225 225 226 228 229 230 232 235 236 236 236 236 238 240 241 241 240 240 241 242 242 242 242 243 245 245 246 248 248 248 249 249 248 247 246 244 241 240 240 240 241 242 243 242 242 240 235 229 227 231 235 236 235
220 219 217 216 220 221 222 224 227 228 228 226 225 227 229 230 232 235 236 237 237 237 238 238 238 237 236 236 237 239 240 240 240 242 243 244 245 247 248 248 247 246 244 243 242 240 238 237 238 239 240 241 241 241 239 236 231 227 227 230 234 235 235
217 219 217 215 217 220 221 224 227 228 229 227 225 226 229 230 232 234 236 236 235 236 236 236 236 234 233 234 236 237 238 239 239 240 241 243 244 247 247 246 244 243 241 241 239 238 236 237 238 239 240 240 240 239 237 233 230 229 230 231 234 237 237
214 216 216 214 215 219 221 223 225 228 229 228 226 225 227 230 232 234 235 235 234 234 235 235 234 232 231 233 234 236 237 238 238 239 240 241 243 245 244 243 242 241 240 240 239 238 237 237 238 239 239 239 238 237 235 233 232 233 234 234 234 237 238
214 214 214 213 214 217 220 221 224 228 230 229 227 225 225 227 230 231 233 234 234 234 234 234 233 231 231 233 234 234 235 236 236 237 238 239 241 241 241 240 241 241 240 240 240 240 239 238 237 237 238 238 237 236 236 236 236 236 238 237 236 237 238